Weather History for KPSP - January, 2011

Change the Weather History Date:

Monday, January 24, 2011

  Actual Average Record
Temperature  
Mean Temperature 59 °F 58 °F  
Max Temperature 76 °F 70 °F 89 °F (1948)
Min Temperature 41 °F 47 °F 23 °F (1937)
Degree Days  
Heating Degree Days 6 7  
Month to date heating degree days 182 192  
Since 1 July heating degree days 507 578  
Cooling Degree Days 0 0  
Month to date cooling degree days 20 0  
Year to date cooling degree days 20 0  
Growing Degree Days 8 (Base 50)    
Moisture  
Dew Point 19 °F    
Average Humidity 26    
Maximum Humidity 43    
Minimum Humidity 9    
Precipitation  
Precipitation 0.00 in 0.02 in 0.21 in (1940)
Month to date precipitation 0.01 0.90  
Year to date precipitation 0.01 0.90  
Since 1 July precipitation 4.28  
Snow  
Snow 0.00 in - - ()
Month to date snowfall 0.0  
Year to date snowfall 0.0  
Since 1 July snowfall 0.0  
Snow Depth 0.00 in    
Sea Level Pressure  
Sea Level Pressure 30.06 in    
Wind  
Wind Speed 4 mph (NNW)    
Max Wind Speed 10 mph    
Max Gust Speed 12 mph    
Visibility 10 miles    
Events      
T = Trace of Precipitation, MM = Missing Value Source: NWS Daily Summary

Daily Weather History Graph

Daily Weather History Graph

Search for Another Location

Airport or City:

Trip Planner

Search our weather history database for the weather conditions in past years. The results will help you decide how hot, cold, wet, or windy it might be!

Date:

Astronomy

Jan. 24, 2011 Rise Set
Actual Time 6:47 AM PST 5:08 PM PST
Civil Twilight 6:21 AM PST 5:35 PM PST
Nautical Twilight 5:50 AM PST 6:05 PM PST
Astronomical Twilight 5:21 AM PST 6:35 PM PST
Moon 11:03 PM PST (1/24) 9:37 AM PST (1/24)
Length of Visible Light 11h 14m
Length of Day
10h 21m
Waning Gibbous, 69% of the Moon is Illuminated
Jan 24
Waning Gibbous
Jan 26
Last Quarter
Feb 2
New
Feb 10
First Quarter
Feb 18
Full

Hourly Weather History & Observations

Time (PST) Temp. Windchill Dew Point Humidity Pressure Visibility Wind Dir Wind Speed Gust Speed Precip Events Conditions
12:53 AM 48.0 °F - 15.1 °F 27% 30.07 in 10.0 mi NNW 6.9 mph - N/A   Clear
1:53 AM 46.9 °F - 17.1 °F 30% 30.07 in 10.0 mi NNW 4.6 mph - N/A   Clear
2:53 AM 48.0 °F - 16.0 °F 28% 30.05 in 10.0 mi NW 4.6 mph - N/A   Clear
3:53 AM 46.0 °F 41.9 °F 17.1 °F 31% 30.05 in 10.0 mi NNW 8.1 mph - N/A   Clear
4:53 AM 46.0 °F 41.9 °F 16.0 °F 30% 30.05 in 10.0 mi NNW 8.1 mph - N/A   Clear
5:53 AM 42.1 °F 39.2 °F 21.9 °F 45% 30.06 in 10.0 mi NNW 4.6 mph - N/A   Clear
6:53 AM 48.0 °F - 12.0 °F 24% 30.07 in 10.0 mi NW 6.9 mph - N/A   Clear
7:53 AM 48.9 °F - 18.0 °F 29% 30.08 in 10.0 mi North 3.5 mph - N/A   Clear
8:53 AM 54.0 °F - 26.1 °F 34% 30.09 in 10.0 mi Calm Calm - N/A   Clear
9:53 AM 62.1 °F - 16.0 °F 17% 30.10 in 10.0 mi Calm Calm - N/A   Clear
10:53 AM 66.9 °F - 6.1 °F 9% 30.09 in 10.0 mi Calm Calm - N/A   Clear
11:53 AM 70.0 °F - 8.1 °F 9% 30.05 in 10.0 mi East 4.6 mph - N/A   Partly Cloudy
12:53 PM 71.1 °F - 14.0 °F 11% 30.03 in 10.0 mi SE 4.6 mph - N/A   Scattered Clouds
1:53 PM 73.0 °F - 16.0 °F 11% 30.00 in 10.0 mi SE 3.5 mph - N/A   Clear
2:53 PM 75.0 °F - 18.0 °F 12% 30.00 in 10.0 mi Variable 3.5 mph - N/A   Clear
3:53 PM 73.9 °F - 19.9 °F 13% 30.01 in 10.0 mi SE 6.9 mph - N/A   Clear
4:53 PM 70.0 °F - 19.9 °F 15% 30.03 in 10.0 mi East 3.5 mph - N/A   Scattered Clouds
5:53 PM 64.9 °F - 28.0 °F 25% 30.05 in 10.0 mi West 3.5 mph - N/A   Clear
6:53 PM 61.0 °F - 30.0 °F 31% 30.06 in 10.0 mi North 3.5 mph - N/A   Clear
7:53 PM 59.0 °F - 28.0 °F 31% 30.07 in 10.0 mi NW 9.2 mph - N/A   Clear
8:53 PM 59.0 °F - 23.0 °F 25% 30.07 in 10.0 mi NW 8.1 mph - N/A   Clear
9:53 PM 57.0 °F - 23.0 °F 27% 30.08 in 10.0 mi NW 9.2 mph - N/A   Clear
10:53 PM 54.0 °F - 25.0 °F 33% 30.09 in 10.0 mi NNW 6.9 mph - N/A   Clear
11:53 PM 55.9 °F - 23.0 °F 28% 30.07 in 10.0 mi WNW 5.8 mph - N/A   Clear